Location: Cedar Brake
(32.2526°N, 97.8459°W)
Time: 08:05:41
(UTC+00:00)

Cosmos 2341 Rocket - Pass Details

Date: 22 April 2026
Orbit: 968 x 1002 km, 82.9° (Epoch: 15 May)

Event Time Altitude Azimuth Distance (km) Brightness Sun altitude
Rises 01:21:02 0° 168° (SSE) 3,654 6.7 -4.0°
Reaches altitude 10° 01:23:37 10° 162° (SSE) 2,715 6.0 -4.5°
Maximum altitude 01:29:31 47° 90° (E) 1,280 4.3 -5.7°
Drops below altitude 10° 01:35:30 10° 19° (NNE) 2,751 6.4 -6.9°
Sets 01:38:07 0° 14° (NNE) 3,708 7.1 -7.5°
